Wind_Speed
27 28 29 30 31 31 31 31 31 30 28 25 22 19 18 17 18 17 18 19 19 19 18 15 13 11 9 8 9 9 11 11 9 7 8 11 8 8 7 4 4 3 3 5 5 5 4 2 4 6 3 4 1 1 2 3 2 4 3 4 3 3 3 4 6 5 5 5 3 2 5 10 5 3 3 4 6 6 8 7 6 9 9 13 19 29 30 26
27 28 29 30 31 31 32 32 31 31 28 25 22 20 18 17 17 17 17 18 18 18 16 14 12 10 7 6 6 7 10 11 9 8 14 14 8 8 8 8 6 3 3 5 7 6 4 3 5 6 5 2 1 1 1 0 2 4 3 4 2 4 2 4 7 6 5 7 6 4 6 8 7 5 4 2 2 5 9 6 8 13 12 17 22 28 28 26
28 28 29 30 31 31 32 32 32 32 29 26 22 20 18 17 16 16 17 17 18 16 14 12 10 8 5 3 3 6 8 7 6 8 13 13 12 13 10 9 8 4 2 4 6 5 3 0 2 5 4 2 2 2 3 2 1 2 4 4 2 5 3 2 5 7 8 11 11 6 5 7 6 4 3 4 4 4 6 4 6 11 12 15 17 22 26 24
28 29 30 30 31 31 32 32 32 32 30 26 22 20 18 17 16 16 16 17 16 14 11 10 8 5 2 1 2 4 5 3 3 5 5 6 10 14 14 12 9 5 2 4 6 4 2 3 5 4 3 2 3 3 3 2 1 2 3 3 4 3 4 2 3 7 8 10 11 8 7 7 3 1 3 6 5 1 3 4 6 13 15 16 15 18 22 21
29 29 30 30 31 31 32 32 33 32 30 25 22 20 18 17 16 16 16 16 14 11 9 7 5 3 1 0 1 3 3 2 3 4 3 3 6 11 16 16 11 6 3 4 5 4 4 4 6 5 4 2 4 5 2 3 1 3 1 4 5 3 4 1 4 7 7 8 9 8 8 5 2 3 3 6 5 3 4 3 9 16 16 17 17 16 18 17
29 30 30 31 31 32 32 33 33 32 30 26 22 20 18 16 16 16 16 15 11 8 7 5 3 1 1 1 2 2 2 1 4 3 2 2 5 9 13 18 13 6 4 5 4 4 4 4 6 4 3 2 3 3 2 5 2 4 1 1 4 4 6 4 4 5 5 9 8 6 5 4 5 4 2 3 1 3 3 8 12 14 16 19 18 15 14 13
30 31 31 31 32 32 33 33 33 32 31 28 24 20 17 16 15 15 15 12 9 7 5 4 2 3 3 2 3 4 2 4 6 2 1 2 3 8 11 17 15 8 4 6 4 3 4 6 5 3 3 3 1 2 2 4 5 5 2 1 2 3 7 7 5 5 7 9 6 6 6 5 6 3 2 5 3 2 9 11 12 14 16 18 15 13 13 13
31 31 31 32 32 33 33 33 33 33 32 30 27 21 17 15 14 14 13 9 7 5 4 4 3 4 4 2 2 4 1 5 5 2 2 3 2 8 13 16 15 8 5 6 4 5 4 6 4 3 3 2 0 3 3 5 7 6 2 1 5 5 4 7 7 8 8 8 8 10 9 5 4 5 4 5 4 8 11 11 13 14 14 13 12 12 11 11
31 31 32 33 33 33 34 34 34 34 34 33 29 22 16 13 12 12 10 7 5 4 4 3 2 4 4 1 3 2 4 6 4 3 2 3 4 10 14 15 15 9 7 6 5 6 3 2 2 2 2 2 1 3 4 6 4 2 4 2 7 5 4 8 8 8 7 4 7 11 8 3 2 5 6 5 4 9 10 12 12 13 12 11 11 12 11 11
31 32 33 33 33 34 35 35 35 35 36 35 31 23 16 12 10 9 7 4 3 3 3 1 3 6 4 1 5 3 4 3 3 3 1 3 6 11 12 12 14 11 8 6 5 6 4 4 4 3 5 1 2 2 4 6 1 1 7 6 7 6 4 7 8 7 5 2 4 8 7 2 2 4 4 3 4 10 11 11 10 11 11 11 10 10 11 11
32 33 33 34 34 35 35 35 36 36 37 35 30 23 17 11 7 5 3 1 1 2 3 3 5 6 3 3 5 3 2 3 3 1 3 3 5 7 9 10 12 11 9 5 5 5 4 6 5 3 3 0 1 2 2 4 3 5 11 9 7 7 6 6 7 6 3 2 1 7 10 6 8 5 2 2 5 9 11 10 9 9 9 9 10 8 8 9
33 33 34 35 35 35 36 36 36 37 38 34 26 22 18 9 4 3 2 1 1 3 5 7 6 4 3 3 3 5 3 6 5 2 5 6 4 4 6 7 8 10 10 5 4 6 4 5 6 4 0 2 2 2 1 3 4 7 12 10 5 8 6 2 4 3 2 3 4 5 10 7 7 5 1 4 6 7 10 9 7 7 7 8 8 7 6 8
33 34 34 35 35 35 36 36 37 38 38 31 22 19 14 5 3 4 4 3 3 4 5 7 4 2 3 0 4 4 7 7 4 2 6 7 6 5 7 6 7 8 8 3 2 4 4 4 4 3 2 4 1 1 3 4 4 5 7 8 5 6 2 4 1 4 3 5 2 4 5 4 4 4 3 5 7 9 8 7 6 5 6 6 7 6 6 8
34 35 35 35 35 35 35 36 37 38 36 27 19 16 10 2 4 6 5 4 4 4 4 5 2 2 2 3 4 4 6 4 2 2 5 8 8 8 8 6 7 7 6 1 3 3 3 3 2 3 1 3 1 0 5 6 4 5 4 4 4 5 4 6 3 3 4 2 4 6 5 4 3 3 4 4 6 10 8 5 5 5 5 5 6 6 6 8
35 35 35 35 35 35 35 35 36 37 34 24 16 12 7 2 4 6 6 5 5 5 4 3 3 2 2 4 4 5 2 1 3 4 4 6 7 7 6 6 4 4 3 2 0 1 1 1 2 3 0 1 4 4 4 4 4 4 4 1 1 4 5 5 4 5 3 1 4 7 5 3 3 1 4 4 5 8 7 4 4 5 6 6 5 6 6 6
35 35 35 35 35 34 34 34 36 36 32 22 14 9 5 3 4 6 6 5 5 6 5 3 3 2 2 1 2 3 1 3 2 3 5 5 5 5 6 6 2 0 1 2 0 1 1 3 4 2 1 2 5 5 4 4 4 3 3 4 3 4 4 3 4 5 1 1 4 5 5 3 2 3 4 5 6 7 7 4 4 5 5 6 5 5 5 5
35 35 35 34 34 33 33 34 35 35 29 20 11 6 4 3 4 5 5 5 6 6 5 2 2 2 0 2 1 1 3 4 3 4 7 6 4 4 6 5 2 3 3 2 3 3 3 3 2 1 2 4 3 5 4 3 0 2 2 3 3 4 6 3 3 5 3 5 3 5 5 4 3 5 5 4 5 7 7 5 4 4 4 5 5 5 5 5
35 35 35 34 33 32 32 32 34 33 25 17 8 3 4 3 3 3 4 6 5 4 2 0 1 2 1 2 1 3 4 5 5 5 7 7 6 3 4 4 3 5 6 5 3 3 2 2 2 1 3 4 3 5 3 3 4 4 3 3 2 2 5 6 4 5 5 6 4 6 6 4 5 6 6 3 3 6 6 5 4 4 5 4 4 4 4 5
35 35 34 34 33 32 31 31 33 29 21 14 6 1 2 1 0 1 2 4 2 1 1 1 1 1 2 3 3 5 4 5 7 6 7 7 6 4 5 4 4 6 5 2 2 2 2 2 3 2 1 1 2 4 6 7 6 6 5 5 6 4 4 4 1 1 7 8 5 5 6 6 7 6 6 4 3 5 5 4 4 4 5 4 4 3 3 4
35 35 34 34 32 32 30 29 31 24 17 13 5 1 3 4 3 2 1 2 3 4 2 3 4 1 4 4 3 4 2 5 5 4 7 7 6 6 4 4 6 6 3 2 1 1 4 3 0 4 5 5 6 8 7 5 6 6 5 5 6 6 3 1 1 2 6 7 3 3 7 7 7 5 6 6 3 4 5 5 5 4 4 5 5 3 3 2
35 34 35 34 32 31 28 29 28 18 14 12 5 1 1 2 2 4 4 3 5 5 5 5 5 3 6 5 4 2 2 2 1 1 6 7 7 6 2 3 5 3 2 3 1 3 5 3 4 7 7 8 8 8 5 5 6 5 5 5 3 4 2 1 2 1 3 6 2 3 9 6 3 4 4 6 5 3 4 6 6 6 4 4 6 5 3 2
35 34 35 34 32 31 27 29 24 12 12 11 5 2 1 3 5 6 3 4 7 5 6 5 2 5 8 7 7 2 4 2 3 3 5 7 4 3 1 4 5 2 2 2 2 5 5 1 8 7 6 7 5 3 5 5 6 5 4 6 4 4 4 3 3 5 5 4 2 4 9 4 1 3 4 5 5 3 2 2 4 7 6 4 5 5 4 3
35 35 35 33 33 29 26 28 18 8 13 10 3 3 3 9 8 4 2 2 7 4 4 4 3 4 5 5 7 6 4 3 3 4 7 8 2 3 4 5 5 3 2 3 4 2 0 5 7 5 7 8 2 2 7 5 4 4 5 7 5 6 6 3 1 4 6 4 5 6 6 2 2 3 2 1 3 2 1 1 0 4 6 5 5 5 5 6
35 36 34 33 33 28 27 27 11 7 17 10 2 3 8 11 7 2 1 1 5 5 4 5 4 5 4 2 8 10 3 4 4 4 9 11 4 3 5 4 4 3 2 5 7 5 5 7 4 6 6 8 5 4 7 6 4 1 3 7 7 6 5 5 5 3 7 7 6 9 5 4 2 2 2 2 1 3 3 3 1 0 3 4 4 4 5 6
35 36 34 34 32 29 28 18 3 11 21 6 5 4 11 10 7 2 1 1 3 6 4 3 2 4 4 3 9 8 3 2 4 5 10 11 7 4 2 3 4 2 3 4 6 3 7 6 5 6 4 5 6 5 5 6 5 0 2 6 10 9 8 9 8 5 6 4 2 6 4 4 4 2 5 2 1 3 1 3 4 2 2 4 5 4 4 4
36 35 34 33 31 31 24 7 4 19 17 1 3 6 13 10 5 1 3 3 3 5 1 2 1 4 5 4 5 4 5 2 5 5 9 11 8 4 2 1 1 2 5 5 3 2 4 3 3 6 6 5 6 4 5 5 6 2 3 6 9 11 12 13 10 5 4 3 4 4 4 3 4 4 7 3 3 4 2 3 5 4 4 4 5 5 5 5
36 35 35 32 30 29 16 4 12 17 6 1 3 9 15 11 2 2 3 4 2 3 1 1 1 4 5 3 4 6 3 4 1 3 6 10 7 3 2 2 1 1 3 4 2 2 3 3 6 7 6 5 5 4 6 6 7 3 5 8 11 13 14 13 10 6 3 3 2 3 4 3 2 5 5 6 5 5 5 6 6 5 5 5 5 5 5 6
35 35 34 31 29 25 13 10 14 9 2 4 6 11 15 7 2 3 5 3 2 2 2 2 0 3 1 1 5 6 3 3 3 1 2 8 6 4 2 5 4 4 1 5 1 5 3 1 3 7 6 3 4 5 7 8 5 3 6 9 9 11 11 10 8 5 2 4 2 3 2 3 4 5 1 5 5 6 8 10 9 7 7 6 6 6 6 6
35 34 33 31 28 21 10 10 10 6 5 6 8 15 13 2 3 4 4 1 2 1 1 0 0 0 2 2 2 1 1 0 3 2 2 4 3 3 3 6 6 5 0 4 4 5 1 4 7 7 6 5 4 3 6 6 4 4 7 8 6 6 6 5 5 5 4 3 4 8 5 3 4 4 1 4 5 9 11 10 9 8 7 7 7 7 7 6
36 33 33 32 26 16 9 13 13 7 5 7 13 15 6 2 4 4 1 1 1 1 0 0 1 0 4 4 2 3 1 1 1 1 2 2 1 5 3 3 6 5 1 4 1 4 3 1 4 4 3 6 3 3 2 3 4 7 8 8 8 6 6 5 3 5 5 1 6 8 8 5 3 4 5 5 5 8 10 7 8 8 8 9 8 7 8 7
36 32 31 31 25 14 8 9 7 3 5 12 15 9 2 2 4 5 2 2 1 2 1 0 1 2 6 5 2 2 1 2 2 3 2 1 4 5 2 1 3 4 4 5 2 4 5 3 1 1 2 4 6 5 3 4 4 6 5 5 6 4 4 4 4 4 3 4 6 5 5 5 2 5 7 8 5 4 10 11 12 13 11 10 8 7 8 7
35 32 30 27 21 14 11 8 8 9 13 14 9 3 3 2 0 2 3 3 1 2 1 2 1 2 4 3 2 3 2 1 1 2 4 2 3 2 2 4 3 2 3 2 1 3 2 1 2 3 1 3 6 5 3 5 5 5 5 6 5 2 2 1 2 1 3 5 3 1 4 4 5 7 6 9 8 5 8 11 13 15 13 11 10 8 7 7
36 32 28 22 17 17 17 15 13 14 13 8 3 3 6 3 2 4 3 2 1 3 1 1 0 3 5 2 2 2 2 2 2 1 2 3 2 3 2 3 5 4 1 3 1 1 1 4 4 2 1 1 6 6 3 1 1 4 5 5 4 3 2 1 3 2 2 3 2 2 1 1 5 5 4 7 8 7 8 8 11 13 14 13 11 9 7 6
36 30 25 20 18 19 18 16 14 11 7 2 3 3 4 2 4 3 2 3 2 2 1 2 1 4 5 3 3 3 2 3 3 3 2 2 2 3 3 2 3 4 3 3 2 3 3 3 3 3 2 1 4 5 6 6 3 3 4 5 5 4 4 3 4 3 3 2 1 3 1 3 3 3 5 6 6 6 7 7 8 10 10 10 8 7 7 7
34 27 22 18 15 13 11 11 14 10 3 3 5 4 3 3 4 1 3 3 1 2 2 1 3 4 2 2 3 2 3 3 2 5 3 3 4 4 3 4 4 4 4 3 2 2 4 4 7 3 1 3 4 3 5 7 4 1 2 5 2 4 5 2 3 5 3 1 1 1 2 4 4 3 3 2 3 4 6 7 8 9 8 7 7 8 8 7
33 26 17 11 12 10 6 6 10 12 6 5 5 2 4 4 3 2 3 1 1 2 3 4 3 4 2 2 2 2 0 0 1 2 1 2 3 4 4 4 5 7 6 5 3 1 2 4 7 3 2 2 3 3 2 3 2 1 2 3 3 3 7 5 1 0 3 2 2 1 2 5 3 3 4 3 3 2 5 7 9 10 9 9 9 9 9 8
33 24 10 8 14 9 4 6 14 14 6 6 4 4 4 3 4 4 1 1 1 1 2 2 1 2 3 2 2 3 0 0 0 2 2 2 2 4 4 3 4 9 9 5 3 3 4 2 6 1 2 2 1 3 5 4 4 4 3 5 3 3 5 5 2 3 4 1 3 2 2 5 3 2 4 3 3 3 5 7 8 8 9 10 10 10 10 9
26 17 6 8 15 6 5 11 16 11 5 4 2 4 3 2 3 3 1 2 2 2 2 1 2 2 3 3 2 2 2 2 2 2 3 2 3 4 5 3 4 9 10 6 2 2 5 1 6 2 3 2 4 5 5 5 3 4 4 4 4 3 1 2 2 1 1 1 3 4 3 3 3 3 4 3 6 7 6 6 8 10 12 12 11 11 10 8
14 7 2 8 15 4 11 14 10 5 5 3 2 3 3 3 4 3 2 2 1 1 1 3 2 1 2 4 3 2 3 4 4 3 3 3 4 4 3 3 4 7 9 7 4 2 4 3 4 3 1 1 4 3 2 1 4 5 4 3 2 3 4 2 2 2 3 2 2 3 4 3 5 5 5 8 10 10 9 9 10 13 14 12 12 11 10 8
5 3 1 9 14 7 13 7 4 5 3 3 3 3 2 3 4 4 4 3 1 1 2 3 2 1 1 3 2 2 2 3 5 3 2 3 4 4 3 3 2 2 3 4 4 2 3 3 4 3 3 1 0 2 5 5 2 3 3 1 1 2 2 2 1 2 3 3 2 1 2 5 6 5 7 10 9 12 13 13 12 12 13 13 12 11 9 8
3 2 2 11 12 10 11 3 2 3 2 2 2 3 3 2 3 5 5 4 3 3 3 3 3 2 2 2 2 2 2 2 4 3 2 4 3 3 3 3 4 4 4 4 3 3 2 3 4 2 1 3 4 5 5 7 6 5 5 4 4 3 3 3 1 2 1 3 3 4 2 7 6 4 6 7 7 11 13 13 11 11 13 13 11 10 9 9
2 1 4 11 13 7 8 3 0 2 2 3 3 3 2 2 3 4 4 2 3 3 2 1 3 2 2 3 2 2 2 2 2 2 2 4 5 5 3 1 3 6 6 3 3 4 3 4 4 2 3 5 7 7 2 5 5 5 3 3 5 4 5 6 2 4 1 1 1 4 1 7 6 3 4 5 6 9 10 10 10 10 11 11 9 8 8 8
1 4 7 10 15 2 6 2 2 1 1 3 3 3 2 2 2 3 3 2 2 2 1 1 3 2 2 3 2 2 3 2 3 2 2 2 4 6 5 1 4 5 5 3 3 2 3 4 4 1 4 4 5 5 2 2 5 5 1 2 5 3 3 5 5 3 3 3 2 2 2 6 6 3 3 4 5 7 8 10 10 9 8 8 8 7 7 8
1 4 6 8 16 5 5 2 2 2 3 3 3 4 3 2 3 3 3 3 2 1 0 2 2 2 2 2 3 3 3 2 2 2 2 2 3 3 1 2 4 5 3 3 5 4 2 2 5 4 3 4 5 6 5 4 1 3 1 1 3 4 6 4 2 3 1 4 5 4 4 6 6 4 4 2 4 6 7 9 9 8 7 7 7 7 7 8
2 2 4 8 14 7 4 3 3 2 2 3 3 5 4 3 4 5 5 4 4 2 2 2 1 2 1 2 3 1 1 1 1 1 2 2 3 2 3 4 2 5 3 3 4 5 3 3 5 6 5 4 2 2 3 3 1 1 1 2 2 5 7 4 2 4 2 3 4 5 5 6 6 4 4 3 3 7 8 7 7 7 7 7 7 7 8 8
2 2 3 6 8 6 2 1 3 2 1 2 2 4 2 3 5 3 4 4 3 2 2 3 1 2 2 2 3 2 2 1 1 1 2 1 3 3 3 4 2 3 4 6 6 5 4 2 3 7 8 8 8 7 5 3 3 2 1 3 3 3 5 5 4 3 4 3 2 6 6 4 8 6 4 5 6 8 8 7 8 7 7 8 8 8 8 7
2 1 2 2 3 4 3 3 5 3 1 1 1 2 3 3 5 5 2 1 2 2 2 1 1 2 1 2 3 1 1 1 2 0 1 1 3 4 4 3 3 3 3 5 3 4 5 2 2 7 6 7 7 5 2 2 4 5 5 4 3 3 5 6 3 5 5 4 4 9 5 4 8 9 8 8 8 8 8 9 9 7 7 8 8 8 8 8
2 0 0 1 1 1 2 3 5 4 4 1 1 1 5 5 5 5 4 5 4 3 2 2 2 1 4 5 4 2 1 1 2 1 0 0 1 3 4 3 3 5 3 3 3 4 6 2 3 5 2 3 4 1 1 2 2 3 5 5 4 4 6 5 5 6 7 6 8 7 6 7 8 8 9 9 9 10 11 9 6 5 6 8 9 10 10 9
2 1 1 1 1 2 2 4 5 3 3 3 2 3 5 5 6 4 4 5 6 5 4 1 3 5 3 4 5 3 3 2 1 2 2 1 0 1 2 1 2 4 5 5 3 2 5 2 2 4 4 2 1 3 1 3 3 1 2 4 5 6 7 7 5 5 7 7 8 4 6 8 9 9 10 8 7 8 6 5 6 7 9 10 11 11 11 10
2 1 3 3 2 2 3 3 3 2 3 4 3 3 4 4 6 6 4 2 4 6 7 3 6 8 4 2 5 4 3 3 2 2 4 3 1 1 2 3 2 3 5 3 2 3 3 2 2 3 4 2 3 1 2 3 4 2 3 4 2 2 3 4 4 3 4 5 7 3 4 8 8 8 8 5 3 5 5 6 8 9 10 11 11 11 11 11
3 2 3 2 2 3 2 3 3 3 3 4 3 3 4 3 5 7 5 3 1 3 6 7 10 8 2 4 7 4 3 3 4 5 4 5 3 3 2 3 5 3 3 1 1 3 4 3 1 4 3 3 3 1 3 5 4 2 5 7 5 2 3 3 3 4 5 4 4 3 3 7 7 4 3 2 3 6 7 8 7 7 9 12 12 12 11 11
7 3 3 1 1 3 3 2 4 3 2 3 3 3 4 4 5 6 4 3 1 2 4 8 7 3 2 5 6 4 8 7 9 9 5 4 4 5 3 2 5 6 3 3 2 1 4 5 2 3 3 4 4 2 4 5 4 3 6 7 6 4 4 3 2 4 6 5 4 4 6 7 5 2 3 3 5 7 9 9 8 8 9 10 11 12 11 11
Wind_Direction
2 0 358 358 357 356 356 356 354 351 347 343 339 333 327 324 321 321 321 321 322 322 322 321 317 314 308 304 307 308 310 313 305 288 249 245 249 236 230 211 186 166 131 85 75 121 112 40 338 359 90 150 178 214 169 183 119 66 76 84 93 140 151 173 181 177 139 126 124 106 115 119 119 102 116 68 59 74 59 42 57 60 74 102 118 127 133 141
1 360 358 357 356 355 356 355 353 351 348 343 339 334 329 326 321 319 318 319 320 319 320 318 317 314 304 300 298 310 318 315 312 283 251 245 246 238 226 223 221 178 122 83 71 101 90 338 320 13 46 48 326 333 12 190 93 92 118 87 155 199 155 155 161 158 129 125 123 107 117 121 134 145 128 111 115 89 74 57 69 81 91 105 119 128 134 142
359 358 357 356 355 355 355 354 353 352 348 343 338 334 330 326 321 319 318 318 318 316 315 316 318 316 304 287 291 321 327 329 323 278 255 246 235 233 223 219 220 190 115 86 68 71 97 238 5 45 44 13 355 353 3 356 63 139 110 74 221 206 112 89 137 142 141 135 127 125 124 116 144 156 104 125 117 84 112 122 98 107 117 120 127 132 138 143
358 357 356 356 355 354 354 354 353 351 349 344 339 336 331 327 323 320 319 318 317 313 312 316 321 316 293 270 308 334 341 351 283 240 222 230 221 220 216 213 211 189 134 83 69 55 76 76 63 58 54 17 334 358 20 338 306 110 100 141 205 168 103 46 118 133 137 135 132 134 119 114 152 93 94 128 105 23 205 183 138 136 136 133 138 139 141 143
357 356 356 355 354 354 354 354 353 352 350 346 341 337 332 329 323 321 321 319 316 314 313 318 322 309 239 287 339 337 5 54 249 207 163 227 212 210 209 206 206 192 150 84 76 69 66 70 69 49 45 19 334 15 7 302 73 75 19 183 182 139 117 130 135 137 137 126 121 117 111 118 111 57 95 129 126 228 222 158 139 140 141 140 142 143 143 144
356 355 355 354 354 353 353 353 352 351 350 348 343 337 332 327 322 322 323 321 318 316 313 311 312 262 199 69 38 15 100 164 276 213 166 277 216 208 200 200 197 178 142 95 86 79 66 52 57 53 43 25 360 31 317 305 51 99 4 207 189 150 130 149 144 134 120 104 97 101 109 107 91 72 45 85 123 248 118 117 130 133 137 138 140 144 146 149
355 354 354 353 353 353 353 353 352 351 350 348 345 337 330 323 319 322 324 322 317 315 311 300 285 213 183 105 52 42 102 253 278 217 225 337 206 202 190 191 187 170 139 106 95 94 79 50 60 110 68 29 5 6 317 342 36 88 99 149 98 80 124 139 118 91 81 87 92 97 93 81 94 116 42 31 6 81 96 109 121 123 129 135 139 145 148 154
355 353 353 352 352 352 352 352 351 350 348 347 345 338 328 319 316 322 324 322 316 320 312 292 266 204 173 130 63 35 359 257 262 240 298 5 138 181 174 176 179 174 130 113 127 136 103 60 84 134 61 15 21 349 347 43 37 58 74 142 87 63 103 102 81 78 76 86 97 87 83 79 98 113 63 16 41 93 101 112 118 120 125 135 141 146 150 156
354 352 352 352 351 351 352 351 350 348 347 346 343 338 327 315 312 320 322 319 320 322 316 303 242 173 156 122 82 83 253 253 267 288 323 54 114 151 158 164 172 169 128 129 144 133 126 93 159 177 130 207 93 360 358 60 37 52 56 59 106 104 98 93 87 91 92 99 100 92 94 116 129 92 53 14 83 103 108 117 124 124 126 139 146 151 155 160
352 351 351 350 350 351 351 350 350 348 346 345 342 336 326 309 303 311 316 322 331 329 334 326 150 134 135 98 91 141 245 281 302 278 107 106 131 137 143 154 161 157 135 148 158 129 126 159 193 154 125 167 76 21 8 69 118 127 75 57 91 101 88 94 104 116 117 83 89 105 102 47 21 84 68 27 105 115 115 121 132 130 130 144 149 155 161 165
351 350 350 349 349 350 350 350 349 348 347 345 341 335 326 308 289 292 297 334 21 34 50 113 126 113 108 88 108 183 263 360 344 3 117 139 145 144 145 150 158 160 148 153 199 175 137 158 165 103 93 306 63 21 7 102 114 116 101 72 48 68 71 76 110 147 139 77 192 105 86 29 21 50 104 129 124 122 124 129 137 134 132 142 148 155 164 169
350 349 348 347 347 348 349 349 349 348 347 346 341 336 330 310 265 236 197 156 98 91 100 122 118 94 74 68 178 220 315 341 335 50 131 137 130 160 153 153 165 169 160 149 215 197 157 149 123 87 152 144 81 17 82 112 86 110 110 92 51 57 72 90 122 213 211 148 226 79 63 9 13 20 36 121 126 120 123 133 136 134 131 136 145 154 164 174
348 347 347 345 346 347 347 349 349 348 348 347 344 345 339 315 194 176 166 148 127 113 124 137 130 73 72 234 238 264 317 319 330 90 142 135 123 141 145 153 167 175 178 134 88 152 156 176 123 107 175 118 106 274 90 56 67 103 95 99 103 71 94 229 221 265 209 135 279 56 72 310 337 16 54 114 127 121 122 135 137 131 132 138 147 155 169 177
347 346 345 344 344 345 347 348 349 348 348 348 348 353 350 346 153 151 138 126 124 117 132 133 105 72 87 249 263 330 319 304 300 197 152 140 130 133 147 157 167 187 205 161 56 91 141 206 142 93 122 106 137 95 47 22 52 106 85 70 102 120 196 244 251 227 176 126 8 72 119 248 287 26 81 126 132 127 131 140 141 137 139 145 152 164 178 184
346 344 343 343 342 344 346 348 348 348 348 349 350 358 4 65 140 139 124 122 123 117 122 92 49 71 51 283 292 350 342 189 248 227 168 154 134 128 157 162 171 197 231 268 256 172 220 203 99 88 234 11 58 57 34 17 28 74 105 53 18 146 201 261 242 205 180 234 20 71 121 231 255 207 104 119 129 127 130 137 144 142 145 151 161 176 184 191
344 342 342 341 341 343 345 347 349 348 347 350 352 359 25 84 126 129 123 124 127 128 122 79 31 80 89 312 331 3 208 194 240 212 184 179 135 112 131 134 134 148 284 270 91 5 359 62 60 70 125 53 65 78 51 42 18 360 103 171 202 155 184 242 235 230 184 96 14 55 134 185 228 178 107 105 130 126 122 132 142 140 148 155 165 180 184 187
344 342 341 340 340 342 344 346 348 347 347 352 356 9 49 90 122 123 119 111 124 137 125 88 3 22 269 292 346 324 240 214 209 191 192 191 162 119 105 101 77 35 22 28 47 32 31 52 40 350 53 56 73 92 64 43 295 303 72 138 208 170 170 177 223 234 116 88 24 50 113 168 166 131 102 98 127 127 127 138 143 136 139 147 159 173 181 184
344 342 341 340 339 341 343 346 348 347 347 355 2 31 62 97 123 101 105 103 112 131 104 342 351 30 260 279 290 277 276 220 195 183 186 191 190 163 84 79 55 29 28 34 34 41 33 6 46 46 17 26 47 82 109 202 181 187 157 125 183 188 182 179 188 205 128 87 72 85 99 135 127 111 99 84 104 127 134 138 139 134 131 133 142 156 177 189
345 343 341 340 340 340 342 344 347 347 348 356 359 63 52 25 125 83 113 102 96 257 312 234 160 72 221 237 267 283 280 192 180 170 172 179 176 141 73 71 56 44 51 42 345 10 80 26 47 82 324 330 156 141 178 200 165 162 164 139 158 170 210 207 178 134 122 95 61 105 126 136 131 124 116 92 67 115 128 123 125 125 126 124 124 139 162 187
346 344 342 341 339 339 340 342 345 346 351 357 342 274 12 359 360 346 285 189 208 236 258 207 177 234 261 256 290 302 277 164 168 161 162 165 145 112 54 38 43 45 72 152 244 342 85 77 262 200 202 195 201 203 190 163 132 137 132 140 170 163 185 233 39 30 112 96 15 100 128 135 138 134 121 111 94 123 138 136 136 137 138 132 127 129 127 153
346 344 343 341 338 338 339 340 343 348 358 2 357 22 58 17 360 317 307 281 240 219 230 227 190 239 267 260 280 318 63 122 280 61 151 160 131 111 21 32 66 34 279 183 181 357 65 85 242 221 197 187 204 214 176 115 119 133 141 151 160 152 163 76 100 337 59 84 31 112 119 117 125 125 117 122 133 170 170 155 154 152 151 140 130 128 118 105
346 345 343 341 338 337 338 338 340 351 6 7 22 76 148 328 314 268 283 314 282 226 206 237 225 262 270 262 255 244 71 65 304 309 156 149 119 142 193 67 109 187 283 104 58 4 32 270 248 227 182 171 203 201 113 117 133 123 135 138 135 150 126 59 41 360 21 90 122 127 119 100 27 97 103 125 147 209 244 202 178 159 153 155 140 135 129 111
346 344 343 341 338 336 336 336 335 353 3 1 38 66 356 348 340 273 228 302 291 277 185 200 198 231 268 271 222 171 116 145 205 255 177 147 130 171 139 92 125 151 83 121 139 103 35 252 239 200 157 152 173 90 100 104 105 110 132 126 149 180 139 117 323 14 30 82 127 122 100 30 345 70 76 93 143 161 54 32 226 161 152 162 156 146 144 136
345 344 344 341 338 335 335 334 329 358 352 342 170 29 360 355 355 326 194 222 288 291 228 202 191 198 225 232 167 153 135 169 170 216 175 150 135 152 150 142 124 117 193 172 148 158 231 232 174 123 139 149 131 111 119 117 96 103 149 134 155 177 127 124 156 106 45 46 108 111 63 327 296 149 216 323 75 129 94 101 158 213 132 139 147 157 158 149
345 344 342 342 340 334 333 333 335 350 342 326 173 360 360 354 343 6 83 63 295 291 265 208 210 209 200 127 155 159 107 182 209 201 171 155 144 137 175 169 119 149 204 154 133 192 259 245 155 112 104 125 122 135 159 144 127 118 231 167 161 150 116 117 132 111 62 28 192 129 88 281 291 233 223 277 145 168 108 155 202 229 160 146 153 171 177 159
344 343 342 342 339 335 336 342 339 338 334 280 170 338 350 346 332 66 93 49 299 278 270 183 202 189 179 124 155 140 75 268 246 173 158 165 158 126 135 195 51 170 172 144 137 204 265 316 95 120 104 100 112 142 186 149 112 116 206 167 145 131 126 137 141 117 112 201 222 135 125 238 300 266 222 208 192 207 215 206 219 228 204 180 173 179 180 172
343 342 341 339 340 340 340 308 319 330 325 232 291 322 337 340 313 159 75 40 303 265 136 216 314 154 175 162 141 119 118 255 248 122 164 175 173 67 107 210 4 175 166 119 43 259 215 13 57 103 89 94 124 162 188 143 107 140 173 138 130 136 143 155 150 128 160 163 96 87 107 120 273 258 215 171 180 223 232 226 226 223 217 204 189 190 186 182
341 341 339 336 337 337 322 294 314 321 273 300 307 321 335 336 167 125 78 70 275 291 129 228 294 141 167 94 141 137 195 228 134 231 250 164 167 47 83 218 180 178 158 110 198 270 197 142 143 127 94 120 184 203 178 128 100 182 160 133 134 142 148 155 140 116 116 109 117 237 151 112 258 274 225 157 185 228 226 221 217 210 215 211 198 195 193 192
339 339 337 333 332 332 316 289 296 290 286 307 319 328 335 350 133 79 79 116 270 327 103 238 63 174 16 67 170 115 5 357 140 236 338 128 166 62 141 207 154 151 55 104 186 255 229 189 182 132 119 191 219 217 168 116 95 151 120 96 80 82 92 99 114 104 69 89 205 223 188 166 267 279 174 151 209 227 218 214 211 205 209 210 203 196 193 197
338 337 335 331 328 329 315 289 283 274 284 315 327 330 338 104 76 67 102 231 266 320 312 244 263 138 88 104 270 327 23 295 354 59 42 101 18 36 127 170 100 117 352 28 158 258 305 188 159 112 147 193 152 108 140 88 115 128 96 72 62 45 41 48 58 81 73 312 252 224 192 177 272 269 197 182 219 213 195 196 205 203 206 209 206 196 192 198
335 335 332 326 320 311 295 287 284 266 297 318 327 334 27 73 63 96 188 249 258 308 336 197 288 112 124 136 220 262 141 303 350 85 111 58 41 40 75 121 69 66 9 358 319 297 344 54 161 255 178 139 93 82 48 25 73 105 90 88 86 29 20 35 3 42 104 248 268 241 177 144 244 260 215 215 243 192 176 189 195 197 202 205 204 197 193 197
334 332 327 319 308 283 257 262 280 285 297 315 332 8 82 54 50 162 245 302 322 262 227 186 215 155 150 141 188 198 152 229 310 109 141 130 113 146 166 177 167 63 352 287 278 331 355 147 283 307 182 121 94 82 44 21 35 80 90 89 94 28 17 45 317 351 200 243 277 239 139 136 241 251 221 221 238 220 194 197 193 192 194 197 200 199 193 194
333 330 324 314 298 276 268 274 277 277 287 309 357 51 75 89 226 219 247 315 226 234 218 144 152 126 137 137 214 198 137 212 236 99 128 112 129 222 245 182 153 120 193 212 136 68 295 308 330 34 287 172 120 122 143 129 79 130 130 113 113 99 77 248 263 267 249 252 284 298 160 189 274 267 211 213 229 223 210 205 196 190 190 193 195 192 190 196
332 330 323 309 293 283 278 272 260 257 275 327 70 69 85 132 239 224 232 266 249 272 24 80 72 107 138 180 226 189 158 225 195 123 117 84 107 239 259 209 158 111 114 142 147 150 146 294 275 167 207 203 142 161 167 147 120 151 153 129 139 151 149 209 226 202 235 241 264 315 238 187 234 234 205 216 238 226 209 202 189 186 190 186 180 181 191 202
332 331 324 309 296 294 289 267 246 232 215 80 70 82 135 207 248 220 228 251 290 325 337 37 116 125 174 254 277 215 185 227 179 119 139 152 166 204 203 201 191 129 119 155 216 143 129 235 257 249 217 151 156 197 151 113 87 182 137 109 141 180 145 138 190 177 176 176 213 249 223 213 216 240 256 255 256 223 202 187 170 177 181 165 168 188 196 203
334 335 332 318 315 315 306 256 205 185 163 86 69 134 191 220 221 177 207 227 343 313 333 354 73 130 202 270 296 289 137 209 143 127 193 199 186 202 202 209 188 161 151 157 197 164 119 257 280 325 22 96 150 189 131 95 127 149 129 161 205 158 118 115 173 81 68 92 261 264 270 299 321 303 317 21 54 151 177 176 171 174 171 169 184 196 198 202
336 338 334 333 335 322 268 201 167 157 127 87 117 208 222 227 197 183 234 334 334 337 47 21 28 155 182 189 258 273 118 106 216 164 223 255 228 203 201 233 191 179 181 161 191 201 147 249 297 26 100 341 334 116 64 57 122 130 178 199 171 106 96 104 119 15 42 155 280 323 271 294 341 315 314 17 80 168 180 176 172 170 174 185 194 198 201 199
329 329 317 344 349 337 182 164 154 138 82 87 169 239 222 221 213 202 291 342 334 15 75 176 214 185 170 166 230 242 153 185 216 179 184 232 260 208 176 200 196 192 197 173 188 223 121 142 296 298 158 284 360 68 59 17 57 121 164 163 113 121 144 78 119 141 101 206 285 315 303 271 207 226 274 246 194 190 189 181 177 181 186 192 196 199 201 189
326 328 306 0 3 39 151 151 143 91 63 128 218 250 222 251 257 238 259 319 339 83 169 222 188 110 147 156 185 194 146 178 195 183 169 176 244 238 181 197 207 203 201 171 165 202 100 127 259 290 188 276 12 67 149 326 16 52 78 63 54 128 155 160 146 158 162 167 256 306 329 279 227 216 216 218 201 181 181 190 192 194 193 193 195 196 193 182
345 4 245 360 15 118 149 133 83 59 91 178 210 225 244 273 269 265 255 240 237 181 205 223 176 111 173 172 183 180 139 160 170 176 200 188 218 251 235 203 174 169 169 127 129 136 73 121 198 288 332 129 166 201 182 174 129 78 74 36 7 76 124 160 87 79 135 144 174 231 300 269 250 208 198 216 202 180 185 191 196 200 196 196 197 193 187 181
1 26 241 3 26 146 155 66 59 109 129 208 217 228 266 285 274 288 269 217 213 231 211 193 182 168 177 184 215 188 128 125 158 173 212 200 201 235 233 198 163 138 108 96 136 162 138 135 158 204 256 174 230 253 202 181 170 147 162 186 163 131 125 126 339 318 97 124 165 165 229 267 259 205 210 220 190 187 194 191 195 202 198 198 198 191 184 178
22 2 257 1 19 150 150 59 205 143 128 199 230 233 261 301 266 281 294 247 216 237 247 195 195 189 179 183 188 170 136 128 171 182 207 204 202 211 216 147 138 139 126 144 199 176 144 110 111 179 215 207 249 272 219 172 149 124 140 160 141 135 122 128 201 254 145 90 137 129 191 267 265 235 239 236 194 193 196 190 197 205 199 197 194 182 176 177
107 299 272 351 6 68 133 50 288 256 207 241 279 253 233 283 258 273 310 289 234 238 289 245 200 188 208 197 155 163 176 168 174 185 225 228 222 225 224 149 133 132 114 142 198 158 112 87 89 340 302 304 302 319 17 85 97 101 99 126 133 148 134 143 177 176 147 166 156 117 255 268 276 293 283 251 202 188 194 195 197 200 197 193 185 173 169 176
226 289 267 339 355 14 144 189 242 225 283 308 332 302 282 264 224 236 262 253 244 222 183 244 212 182 202 167 124 171 192 177 187 194 195 207 227 243 285 78 148 161 150 180 181 158 161 124 103 88 11 348 341 351 349 330 49 129 190 126 123 116 105 114 128 104 153 209 157 145 236 255 271 312 335 293 188 187 205 204 197 193 189 184 177 171 172 176
305 295 256 318 350 22 136 172 151 166 299 346 329 301 305 297 250 222 225 249 255 205 190 268 230 147 149 109 82 61 99 114 223 205 163 215 262 292 356 22 142 186 201 177 141 120 136 146 118 120 141 169 199 249 257 254 228 160 115 124 127 114 122 142 119 104 223 233 143 159 223 263 289 315 338 313 221 213 219 208 201 196 180 175 175 171 174 177
10 18 306 315 352 32 87 56 80 111 49 34 330 300 326 320 300 262 213 239 261 229 223 268 275 72 42 79 86 46 24 36 3 90 140 227 277 291 328 3 78 141 122 105 92 85 105 116 119 141 165 179 185 211 225 169 143 180 168 149 156 124 120 116 102 144 195 174 177 219 212 266 298 290 280 267 230 225 226 208 205 197 175 173 175 172 175 180
62 39 345 336 339 11 31 15 34 34 322 118 239 305 356 339 317 320 300 264 289 266 239 237 90 90 185 159 117 140 222 7 6 60 142 245 275 291 320 13 43 19 55 89 71 79 105 125 153 143 173 198 184 196 221 114 151 184 165 153 174 150 120 117 151 198 163 129 259 255 196 199 267 263 250 242 224 224 229 217 211 198 176 169 163 165 175 180
45 129 187 108 249 334 5 345 355 347 315 288 188 353 12 4 348 340 320 320 335 342 348 10 26 8 208 179 140 149 189 25 9 289 249 344 299 331 348 7 6 353 18 53 25 86 111 136 184 144 148 207 192 245 326 100 121 160 155 162 176 170 164 175 206 197 155 168 247 244 178 199 245 256 250 236 215 217 220 208 194 169 157 157 159 169 178 180
18 32 318 10 163 229 266 302 319 326 337 356 26 27 19 7 353 332 295 314 336 356 19 4 319 326 284 177 136 141 185 173 171 227 213 160 74 31 27 334 325 7 47 57 16 70 113 125 203 151 103 98 263 293 256 124 108 129 194 188 173 175 189 203 219 198 180 218 252 222 193 230 248 246 250 245 215 212 206 174 160 161 163 166 169 176 179 182
16 15 329 358 1 293 272 305 337 22 19 12 26 11 1 10 358 329 293 285 323 347 10 348 307 319 318 125 104 109 175 177 191 216 170 147 163 194 179 195 196 36 42 59 12 22 87 139 208 116 88 5 324 332 116 110 132 177 278 281 221 176 200 225 240 196 182 252 274 257 229 259 261 239 250 264 197 171 165 175 182 176 171 170 174 179 182 184
338 286 325 13 352 340 337 332 2 64 36 7 19 351 337 355 357 327 292 254 230 24 12 329 303 301 319 75 82 66 342 307 273 261 203 177 207 219 221 204 166 123 43 60 42 32 83 119 57 75 93 278 294 95 73 40 60 37 306 280 254 226 209 219 210 178 175 212 257 277 244 257 265 246 245 261 169 170 186 193 186 178 175 174 178 182 183 185
352 307 344 19 283 354 10 344 360 58 68 357 352 338 320 313 330 334 316 292 274 80 17 335 319 312 41 52 56 2 322 296 270 270 252 219 230 224 226 204 149 136 139 128 75 29 121 126 134 107 128 258 291 46 61 42 35 318 276 236 210 204 217 239 251 220 203 175 187 225 226 238 267 262 220 214 189 195 207 198 183 179 180 181 183 182 181 189
Height
791 790 788 786 783 781 778 776 774 771 769 766 764 762 761 759 758 757 756 755 754 752 751 750 749 748 748 747 747 746 745 744 744 744 741 735 734 736 737 738 738 739 740 741 742 743 744 745 744 742 744 747 750 750 748 749 749 758 773 784 790 792 787 781 783 781 781 785 783 780 777 782 789 785 780 779 785 789 789 790 786 784 783 786 789 792 797 803
791 789 787 785 783 780 778 775 773 770 768 765 763 761 759 758 757 756 755 754 753 751 750 749 748 747 746 747 746 745 744 742 742 741 735 732 733 735 736 737 738 739 739 741 741 741 744 745 743 742 746 750 751 749 750 750 750 764 777 784 787 785 778 771 773 774 775 782 782 780 778 779 786 785 781 787 795 791 795 798 793 793 792 791 793 795 799 802
790 789 787 784 782 780 777 775 772 769 767 764 762 760 758 757 756 754 753 752 751 750 749 747 747 746 746 746 744 745 744 742 743 737 730 731 732 733 735 736 737 738 739 740 741 740 742 743 742 744 749 753 753 752 754 752 754 764 772 783 783 775 773 770 770 771 771 774 779 781 778 780 783 782 782 791 798 795 798 800 798 801 800 797 797 797 800 803
789 788 786 784 782 779 777 774 771 769 766 763 761 759 757 755 754 753 752 751 749 749 747 747 746 745 746 744 745 745 742 746 743 732 728 730 730 731 733 735 736 738 739 739 740 740 740 741 742 745 751 758 756 755 759 756 757 763 768 778 776 770 775 773 769 770 769 770 775 779 781 785 784 780 785 791 799 801 797 794 794 799 799 798 799 799 801 804
789 787 785 783 781 779 776 773 770 768 765 762 760 758 756 754 753 751 750 749 748 747 746 746 745 745 745 744 746 743 745 755 743 726 729 729 729 730 731 734 736 737 738 739 740 740 741 741 744 749 755 761 760 760 762 757 755 765 769 770 768 769 776 773 769 769 769 770 774 780 785 788 784 784 789 791 797 798 792 788 789 792 794 796 798 800 802 804
789 786 784 782 780 778 775 772 770 767 764 761 759 757 755 753 751 750 749 748 747 746 745 745 745 745 745 744 745 742 748 756 736 725 730 727 728 730 730 733 735 737 738 739 740 740 743 744 748 756 761 763 766 764 763 756 754 767 772 768 766 766 771 772 769 770 770 773 780 784 784 784 787 792 791 790 794 791 784 785 788 790 792 794 798 800 803 805
788 786 784 782 779 777 774 771 769 766 763 761 758 756 753 751 750 749 748 747 746 745 745 744 744 744 744 744 745 744 748 746 728 727 730 726 729 728 730 733 734 738 738 739 740 742 745 748 754 760 764 766 767 766 762 758 755 765 772 769 769 768 769 770 770 772 773 778 782 780 783 787 793 795 792 793 793 787 785 786 789 792 794 796 799 801 803 805
787 785 783 781 778 776 773 770 767 765 762 759 757 754 752 750 749 748 747 746 745 745 744 744 744 744 744 745 744 747 749 738 727 728 728 727 728 727 730 732 734 737 737 739 740 742 746 752 756 759 766 768 765 765 761 760 761 767 773 771 770 771 772 770 772 776 777 780 780 781 789 793 793 792 795 799 794 789 788 789 791 794 797 799 801 803 804 805
787 784 782 780 777 774 772 769 766 763 760 757 755 752 750 748 747 747 746 745 744 744 744 743 744 743 745 744 745 751 745 730 726 728 727 728 728 728 730 731 735 737 737 740 739 741 746 753 756 754 763 766 763 764 759 764 771 769 771 772 772 775 775 774 777 779 781 782 781 788 796 796 790 790 800 801 795 791 790 793 794 796 800 802 803 804 804 805
786 783 781 779 776 773 770 767 764 761 758 755 752 749 748 746 746 745 745 745 744 744 743 743 743 743 745 743 747 752 737 725 728 728 727 729 728 729 731 732 735 736 737 740 739 741 744 749 750 748 755 761 762 764 762 767 771 766 769 775 775 778 776 776 780 780 782 783 782 789 797 795 787 792 807 804 794 793 794 797 798 799 803 804 805 805 805 806
785 782 780 777 775 772 769 766 763 759 756 752 749 747 745 744 744 744 744 744 744 743 743 743 743 744 744 743 749 747 730 726 729 727 728 729 729 730 731 733 734 735 737 739 740 740 741 743 743 747 756 760 761 764 763 762 764 764 769 779 782 780 780 781 783 783 783 785 783 783 791 794 791 799 809 803 796 795 797 801 801 802 805 805 806 806 806 807
784 781 778 776 774 771 768 765 761 758 754 750 748 745 742 742 742 743 743 743 743 743 743 743 744 744 744 745 747 738 727 727 728 727 729 729 730 731 731 734 734 735 737 738 740 739 741 741 741 751 757 757 763 769 765 758 761 767 769 785 792 787 789 787 785 785 783 786 781 779 796 806 806 809 807 800 798 798 800 804 804 805 806 806 808 808 808 808
783 780 778 775 772 770 767 764 760 757 753 749 746 743 742 741 741 742 742 743 743 743 743 743 744 743 745 746 738 729 727 728 727 727 729 730 731 731 732 735 735 736 737 738 740 739 742 741 742 750 750 755 765 764 760 758 764 773 775 787 797 801 802 791 785 787 785 786 778 782 812 824 815 811 805 800 800 801 805 807 806 807 807 808 809 809 809 808
782 779 777 774 771 769 766 763 759 755 752 749 746 744 742 741 741 742 742 743 743 744 744 744 744 743 746 742 730 727 728 726 728 728 728 730 731 732 733 734 735 737 738 739 740 740 741 741 741 747 748 754 758 755 761 768 772 779 784 790 801 812 811 793 786 791 790 787 777 784 817 828 817 811 805 802 802 803 809 809 808 809 808 809 809 809 810 807
781 778 775 773 770 768 765 762 758 754 751 749 746 745 743 742 742 742 743 743 743 744 744 744 744 744 747 740 728 727 728 726 728 727 728 730 730 733 734 735 736 737 737 739 739 740 741 740 743 751 754 751 753 762 773 779 779 783 794 804 808 811 809 795 786 790 793 790 781 789 817 826 817 811 805 803 804 805 810 811 809 810 809 810 810 809 810 808
780 777 774 772 769 767 765 761 758 754 751 748 747 745 744 744 744 743 744 743 743 744 744 746 744 745 750 741 729 728 728 727 728 728 729 730 730 732 733 735 736 736 737 737 737 738 738 741 747 754 756 757 763 772 780 787 791 791 797 808 810 808 810 803 790 785 788 792 789 793 815 825 817 810 806 804 806 807 810 813 811 811 811 810 811 810 810 810
779 776 773 771 768 766 763 760 758 754 751 749 747 746 745 745 744 744 744 744 745 744 744 746 745 746 745 734 731 733 728 727 728 728 729 729 731 731 732 734 735 735 735 735 737 738 740 746 754 758 760 768 771 774 788 800 801 797 798 803 805 807 809 807 799 788 785 794 798 798 810 820 815 810 809 807 807 809 812 814 813 812 812 811 811 811 810 811
778 775 772 769 767 764 762 760 757 753 751 749 747 747 746 746 745 745 745 744 745 745 747 747 745 752 750 735 734 734 727 726 727 728 729 730 731 732 732 734 735 736 739 743 744 745 749 753 760 766 770 775 775 779 795 801 795 795 797 799 803 806 806 806 801 790 787 797 804 806 812 818 816 812 811 810 809 811 813 813 814 813 813 813 812 812 811 811
777 774 771 768 765 763 761 759 756 753 751 749 748 748 746 746 745 745 745 746 746 746 748 746 744 752 751 737 730 728 724 726 727 728 729 730 731 732 733 735 737 741 750 758 756 752 756 761 768 775 777 778 778 780 785 785 784 788 791 794 799 803 805 801 795 788 788 801 810 810 815 819 818 815 813 813 811 813 815 814 815 815 814 814 814 813 812 811
776 773 770 767 765 762 760 758 756 753 751 750 749 748 749 751 750 749 746 744 743 740 739 739 738 740 739 732 727 726 725 726 727 728 729 729 730 733 736 738 743 750 758 764 763 757 758 771 778 776 776 776 775 773 773 777 781 785 790 793 794 800 803 798 795 792 786 800 815 813 815 819 819 818 814 813 815 816 817 816 816 817 816 815 815 815 814 813
775 772 769 766 764 762 760 757 755 753 751 750 748 749 753 756 759 757 749 742 734 731 734 733 732 734 731 728 726 724 727 730 728 727 729 729 729 739 745 746 755 763 763 764 764 759 763 777 777 770 771 771 769 769 772 779 782 786 790 793 798 802 803 798 796 795 786 798 818 816 817 822 820 820 817 814 818 819 818 817 817 817 817 816 815 816 815 813
775 772 768 766 762 760 758 756 755 753 752 750 749 751 752 753 755 753 751 750 737 728 732 731 731 732 725 724 724 724 731 737 736 731 729 730 733 745 751 752 762 768 764 764 767 770 775 778 770 764 769 769 769 771 775 780 781 787 791 795 804 803 803 803 797 796 792 800 819 819 820 826 822 819 818 816 819 819 817 816 815 816 817 817 816 816 815 815
774 770 768 765 761 759 757 755 754 752 752 751 750 751 751 750 749 747 751 757 747 730 730 732 732 732 727 725 723 724 734 740 742 736 727 732 739 745 751 757 763 765 765 767 770 780 784 775 764 763 767 768 773 776 777 780 782 788 790 795 804 799 801 808 804 803 799 801 815 820 823 827 823 821 819 816 816 816 816 815 815 815 815 816 815 814 814 815
773 769 767 763 760 758 756 754 752 752 751 750 750 750 750 749 748 748 750 757 755 736 727 727 726 727 726 721 718 725 735 735 738 735 726 732 742 744 749 755 761 765 766 765 768 776 775 766 761 764 767 768 774 778 777 781 786 788 787 790 798 796 796 802 804 805 806 809 811 816 832 835 825 826 825 818 816 816 816 817 818 816 815 815 814 814 814 813
771 769 766 762 760 756 754 753 751 751 750 749 750 749 749 749 747 747 751 761 761 741 727 725 724 723 717 716 718 722 731 732 730 729 723 727 738 745 749 749 756 765 767 766 770 772 767 760 759 762 767 769 772 776 776 779 786 788 784 783 787 789 792 799 802 804 817 828 815 814 839 843 828 827 827 822 820 818 818 819 819 818 816 815 815 815 814 813
770 768 765 762 759 755 753 751 750 751 750 748 748 748 748 748 746 746 753 768 764 743 733 730 728 724 716 720 721 720 737 739 724 720 722 725 728 736 749 752 753 761 764 765 768 768 763 758 758 760 765 770 771 774 775 776 783 789 784 778 781 786 792 799 799 803 820 829 814 811 831 841 834 828 824 823 823 821 820 820 819 818 817 815 815 814 814 813
769 767 764 762 759 756 754 752 752 752 750 749 747 747 747 745 746 745 757 779 770 742 735 734 729 723 718 721 719 728 751 743 724 723 721 724 725 728 747 757 756 758 756 762 772 768 761 760 762 762 765 772 773 772 773 770 777 786 780 777 784 787 792 797 795 802 815 818 817 816 821 835 838 827 820 821 825 825 823 821 818 817 817 815 814 813 813 812
768 765 763 761 759 758 756 754 754 750 749 749 746 747 746 744 746 747 767 791 770 735 732 731 721 716 716 719 719 730 741 733 736 737 718 720 727 730 748 755 754 757 753 762 778 769 758 761 763 762 768 775 771 766 766 765 772 780 778 778 781 784 789 793 795 805 812 816 828 827 820 832 835 825 823 823 826 829 824 819 817 815 816 815 813 812 811 811
766 764 761 759 757 756 755 754 752 749 748 746 745 747 744 744 746 753 777 789 758 731 730 727 720 720 722 725 727 729 730 730 740 736 719 724 727 729 747 750 748 756 754 759 770 764 756 757 756 758 767 770 765 764 763 763 769 775 777 780 782 788 793 797 802 807 811 819 829 827 821 830 834 829 831 831 828 825 817 814 814 813 814 813 812 812 810 810
763 762 759 757 755 754 754 752 748 746 746 745 746 745 742 746 753 771 792 780 751 738 732 728 729 730 730 736 739 735 734 734 733 729 728 732 729 729 740 741 744 755 758 759 762 760 755 752 752 756 761 761 761 766 767 766 768 770 775 782 789 796 797 802 807 806 820 829 821 818 818 823 829 826 827 826 815 808 808 812 813 810 812 811 810 810 809 809
760 759 757 754 753 753 753 750 745 745 745 744 745 742 745 754 764 786 790 762 747 745 735 734 738 733 735 743 745 740 738 738 733 735 739 739 739 741 745 748 752 761 768 767 764 762 758 756 758 754 753 756 758 765 769 769 769 770 775 784 794 804 804 809 813 812 830 834 817 817 819 823 830 818 810 810 800 796 801 805 807 807 808 808 807 807 807 807
757 755 754 751 750 749 749 747 743 744 744 744 744 744 753 770 777 783 772 751 752 751 739 740 740 736 739 743 744 742 742 742 737 739 744 747 751 751 753 758 760 770 783 779 772 769 764 760 760 755 751 752 758 769 774 773 773 774 779 787 800 816 821 824 829 830 833 826 818 820 819 825 827 805 797 802 797 796 796 794 798 801 802 804 804 805 805 806
754 751 749 747 746 744 743 743 742 744 743 743 746 748 761 782 784 772 761 754 754 745 736 739 737 738 743 745 746 744 743 745 741 741 744 748 755 754 753 754 755 765 778 781 778 777 774 768 760 758 756 751 756 771 779 779 778 776 779 787 801 820 831 836 841 842 834 822 820 821 818 824 819 798 794 798 793 793 792 790 792 794 797 799 799 801 803 804
751 748 745 742 741 739 738 740 741 742 742 743 749 757 773 786 777 763 759 755 747 739 737 739 739 741 743 745 746 742 745 749 742 743 748 751 759 760 756 755 755 757 765 778 782 780 787 784 766 760 761 755 754 761 766 770 775 779 779 782 792 803 815 826 829 827 826 823 822 823 820 818 810 797 794 792 789 790 788 788 790 791 795 796 797 801 802 803
747 745 742 738 737 736 736 737 738 740 742 744 754 768 780 781 770 762 758 749 743 741 740 739 741 747 749 747 744 739 742 747 744 745 751 754 759 760 755 754 755 755 761 777 782 780 790 785 762 755 756 753 755 757 756 761 775 786 783 782 789 788 793 815 826 821 820 822 823 823 818 810 802 794 792 790 789 790 788 788 790 792 795 797 799 801 800 801
744 741 739 736 735 735 734 735 736 738 741 748 762 774 774 766 760 758 751 743 744 745 744 745 744 751 756 752 749 743 738 743 746 749 753 755 756 754 751 747 747 750 754 767 777 780 787 780 760 756 756 751 754 756 754 760 774 784 785 784 788 784 785 808 828 828 825 824 825 825 814 805 800 793 791 793 790 791 792 789 790 792 794 797 798 798 799 799
742 739 738 736 734 733 733 733 735 737 741 751 765 770 764 754 749 748 742 739 742 741 747 754 750 751 757 755 752 747 742 745 749 752 756 758 754 748 747 744 741 742 742 750 764 768 774 777 764 758 761 756 752 754 754 757 765 777 783 781 782 786 786 796 815 828 833 830 826 826 822 814 809 798 792 796 796 794 794 791 791 794 794 796 796 795 796 796
744 741 739 737 734 732 731 733 735 737 743 755 765 763 758 752 744 742 740 738 741 741 748 755 750 748 754 756 753 748 747 751 753 754 757 759 753 742 740 741 738 737 734 737 753 758 762 776 772 761 763 759 751 756 763 762 761 765 770 772 778 791 795 798 811 822 831 836 829 826 830 823 812 800 789 789 794 795 795 794 793 793 792 793 793 792 794 795
747 744 740 737 734 732 733 735 735 739 748 761 767 761 755 751 742 738 737 737 740 744 748 749 745 746 749 749 749 747 747 752 754 755 756 758 754 741 736 738 736 736 734 735 748 755 759 775 779 766 761 761 757 762 773 774 768 764 766 772 778 787 793 797 805 808 815 832 834 828 827 815 799 793 782 777 785 790 792 793 791 789 788 788 788 789 791 794
749 747 743 737 735 734 734 735 738 746 755 762 764 758 753 749 741 735 733 735 738 741 745 745 743 745 745 744 745 744 746 749 751 754 754 753 752 742 734 733 734 737 738 738 745 753 759 772 780 771 764 767 769 769 771 772 771 772 776 782 784 789 795 796 803 808 808 820 831 832 827 804 783 782 775 769 778 784 784 786 785 785 784 784 784 786 788 792
753 751 745 738 736 736 736 740 746 753 757 760 760 755 751 745 741 737 732 732 735 732 734 739 740 740 741 743 744 741 744 748 749 751 751 749 749 745 734 728 731 736 741 745 746 749 758 767 775 776 772 773 771 766 765 764 764 767 771 778 781 786 793 799 811 817 809 811 821 827 823 796 772 774 772 767 775 778 778 780 781 781 781 781 782 783 786 789
757 753 744 738 738 736 739 748 754 756 757 757 754 750 746 742 741 740 733 732 734 730 729 733 736 738 738 739 741 740 742 746 748 749 748 745 744 740 732 727 729 730 736 747 747 743 750 760 770 778 776 773 769 764 765 764 762 764 767 773 778 780 784 794 806 810 810 816 819 823 823 795 770 774 775 770 773 774 774 777 778 779 779 780 782 782 785 787
761 755 740 735 738 736 743 754 756 756 755 751 748 745 743 742 741 740 736 735 735 732 733 733 733 735 735 735 738 739 740 743 746 745 744 744 739 732 729 729 729 730 733 743 745 741 749 760 771 780 777 769 764 761 763 763 763 767 771 774 777 777 777 783 791 794 803 813 813 820 824 793 768 774 776 772 772 771 773 774 774 778 778 779 782 783 785 787
767 762 747 738 736 735 745 756 756 755 754 751 749 746 741 740 740 739 737 736 733 732 734 733 730 731 731 732 734 736 739 744 745 742 741 744 736 726 726 726 728 731 731 736 738 737 750 764 772 784 791 786 780 777 772 767 765 769 773 776 776 776 779 784 789 792 799 806 804 810 814 788 769 774 773 770 773 771 771 772 771 775 777 778 782 783 784 787
767 762 753 744 736 736 747 755 755 756 756 755 754 749 745 741 736 734 735 733 730 730 733 731 728 727 729 732 734 735 737 741 744 741 740 741 734 726 725 725 727 728 726 728 726 729 749 764 765 778 797 803 799 791 781 772 770 772 774 776 775 777 778 780 788 795 800 808 808 802 797 780 768 771 771 770 774 771 770 772 771 773 776 777 780 782 783 785
766 761 758 751 742 744 751 755 757 758 758 760 757 751 752 750 739 732 733 733 730 728 730 730 727 728 731 733 736 738 738 739 741 740 739 739 734 729 726 725 726 727 726 726 724 731 752 764 762 765 774 780 778 773 772 770 770 773 775 775 776 778 778 778 788 795 795 805 807 793 785 780 770 767 767 769 773 772 770 771 771 771 773 775 778 780 782 783
770 769 769 764 756 754 756 757 761 763 760 761 759 755 757 757 749 739 733 732 731 729 729 729 729 732 735 735 737 741 741 741 740 739 740 741 736 731 727 725 725 725 725 727 727 735 749 760 764 763 761 765 766 766 771 771 767 770 774 774 776 778 779 779 784 787 789 799 800 785 782 785 773 763 762 763 768 770 769 769 769 769 771 773 776 779 781 783
771 772 774 773 769 766 764 762 765 766 762 760 760 760 760 760 758 753 744 736 732 731 733 734 732 733 735 734 736 741 742 742 742 741 741 742 740 736 731 728 727 724 724 728 729 733 744 757 767 767 764 769 772 771 772 769 768 771 772 772 775 776 778 778 779 782 785 788 785 778 781 782 770 760 757 757 760 763 763 764 765 768 771 773 775 778 780 782
774 774 774 774 773 773 770 767 767 766 763 761 761 763 765 764 763 762 754 746 739 736 738 739 736 734 735 733 733 738 742 743 745 744 740 740 742 742 739 736 732 726 725 730 733 736 744 758 768 768 767 772 775 774 772 769 770 772 771 771 774 776 777 776 776 780 781 779 776 778 784 779 766 759 754 753 757 760 760 762 763 766 769 771 774 776 777 780
781 781 779 777 774 773 770 768 767 765 763 765 766 767 768 767 767 765 758 753 750 745 744 745 741 738 738 735 732 737 742 741 742 741 738 740 742 742 742 740 736 732 731 734 739 738 744 761 769 764 766 774 774 773 773 772 772 772 772 773 775 779 781 779 779 781 782 782 777 779 787 780 763 757 756 756 758 758 759 762 762 763 767 769 772 774 775 777
787 786 786 782 776 772 771 771 770 768 768 772 773 772 771 769 769 769 760 752 751 751 751 752 748 742 738 735 734 739 743 743 741 737 734 736 737 735 735 734 734 736 737 739 742 739 744 762 768 763 769 777 774 774 775 772 772 775 774 772 773 776 778 776 776 777 776 777 777 781 785 772 756 755 759 759 759 758 759 760 761 763 765 766 769 771 772 774
788 787 787 785 778 775 776 775 773 772 773 778 778 775 773 770 768 769 760 749 747 748 750 751 748 742 737 737 739 741 742 741 739 735 733 732 731 730 729 729 730 733 737 741 746 746 748 757 763 766 773 777 778 779 775 773 782 785 773 764 766 770 770 770 772 771 769 770 774 776 771 760 756 760 759 757 760 760 757 757 758 761 763 765 766 767 769 771